Temperature
16 15 15 14 14 14 13 13 13 13 12 12 12 11 11 11 11 11 11 11 11 11 11 11 11 11 11 12 12 12 13 13 13 12 12 12 11 12 12 13 13 13 14
17 15 15 14 14 14 13 13 13 12 12 12 12 11 11 11 11 11 11 11 11 11 11 11 11 11 11 11 11 12 13 13 13 12 12 12 11 11 11 12 12 12 13
17 16 15 14 14 14 13 13 13 12 12 12 11 11 11 11 10 10 11 11 11 11 11 11 11 11 11 11 12 12 12 13 12 12 12 11 11 10 11 11 11 12 12
17 16 15 15 14 14 13 13 12 12 12 11 11 11 10 10 10 10 10 10 10 11 11 11 11 11 11 11 11 12 12 12 12 12 11 11 10 10 10 10 11 11 11
17 16 15 15 14 14 13 13 12 12 11 11 11 10 10 10 10 10 10 10 10 10 10 11 11 10 10 11 11 12 12 12 12 11 11 10 10 10 10 10 10 10 11
17 15 15 15 14 13 13 12 12 12 11 11 10 10 10 10 10 10 10 10 10 10 10 10 10 10 10 10 11 11 11 12 11 11 11 11 10 10 9 10 10 10 10
17 15 15 15 14 13 13 12 12 12 11 11 10 10 10 10 10 10 10 10 10 10 10 10 10 10 10 10 10 11 11 11 11 11 11 11 11 10 9 9 9 9 10
16 15 15 15 14 13 12 12 12 11 11 11 10 10 10 10 10 10 10 10 10 10 10 10 10 10 10 10 10 10 10 11 10 10 10 10 11 10 9 9 9 9 9
16 15 15 14 13 13 12 12 12 11 11 11 10 10 10 9 9 9 9 10 10 10 10 9 9 9 9 9 10 10 10 10 9 10 10 10 10 10 9 8 9 9 9
16 15 14 14 13 12 12 12 11 11 11 10 10 10 10 9 9 9 9 9 9 9 9 9 9 9 9 9 9 10 10 9 9 9 9 9 10 10 9 8 8 8 8
16 15 14 13 13 12 12 11 11 11 11 10 10 10 10 9 9 9 9 9 9 9 9 9 9 9 9 9 9 9 9 8 8 8 8 9 9 9 9 8 8 8 8
17 15 14 13 13 12 12 11 11 11 10 10 10 10 9 9 9 9 9 9 9 9 9 9 9 9 8 8 8 8 8 8 8 8 8 9 9 9 8 8 8 8 8
17 16 15 14 13 12 12 11 11 10 10 10 10 9 9 9 9 9 9 9 9 9 8 8 8 8 8 8 8 8 8 8 8 8 8 8 8 8 8 8 8 8 8
17 16 15 14 13 12 12 11 11 11 10 10 10 10 9 9 9 9 9 9 8 8 8 8 8 8 8 8 8 8 7 7 7 7 8 8 8 8 8 8 8 8 8
17 16 15 14 13 12 12 11 11 11 11 10 10 10 9 9 9 9 9 9 9 9 8 8 8 8 8 8 8 8 8 8 7 7 7 8 8 8 8 8 8 8 8
16 16 15 14 13 12 12 11 11 11 11 10 10 10 10 9 9 9 9 9 9 9 8 8 8 8 8 8 8 8 7 7 7 7 7 8 8 8 8 8 8 8 7
16 16 15 14 13 12 12 11 11 11 10 10 10 10 10 9 9 9 9 9 9 9 9 8 8 8 8 8 8 7 8 8 8 7 7 8 8 8 8 8 8 8 8
16 15 15 14 13 13 12 11 11 11 10 10 10 10 10 9 9 9 9 9 9 9 9 8 8 8 8 7 7 7 8 8 8 8 8 8 8 8 7 7 7 7 7
16 15 15 14 14 13 12 11 11 11 10 10 10 10 10 9 9 9 9 9 9 9 8 8 8 8 7 7 8 8 8 8 8 8 8 7 7 7 7 7 7 7 7
16 15 15 14 14 13 12 11 11 11 10 10 10 10 10 10 9 9 9 9 9 8 8 8 8 8 7 7 8 8 8 8 8 8 7 7 7 7 7 6 6 6 6
16 15 15 14 13 12 12 11 11 10 10 10 10 10 10 9 9 9 9 9 9 8 8 8 8 7 7 7 7 7 7 7 7 7 7 6 6 6 6 6 6 6 6
16 15 15 14 13 13 12 11 11 11 10 10 10 10 10 9 9 9 9 9 8 8 8 8 7 7 7 7 6 5 6 6 6 6 6 6 5 5 5 5 5 5 5
15 15 14 14 13 12 12 11 11 10 10 10 10 10 10 9 9 9 9 9 8 8 8 7 7 7 6 6 5 5 4 5 5 5 5 5 4 4 4 4 5 5 5
15 15 14 14 13 12 12 11 11 11 10 10 10 10 10 9 9 9 9 8 8 8 7 7 7 6 6 5 5 5 4 3 3 3 4 3 3 3 3 4 4 4 4
15 14 14 13 13 12 12 11 11 11 10 10 10 10 10 9 9 9 9 8 8 8 7 7 6 6 6 5 5 4 3 3 2 1 2 3 3 2 2 2 3 3 3
14 13 13 13 12 12 12 11 11 11 11 10 10 10 9 9 9 9 8 8 8 7 7 6 6 6 5 5 4 4 3 2 2 1 1 1 1 2 1 2 2 2 2
Wind_Speed
11 16 17 16 15 13 13 13 14 14 13 13 12 12 12 12 12 13 13 14 15 15 15 16 16 17 17 17 17 17 17 17 18 18 18 18 18 18 18 18 16 15 18
15 18 18 17 16 14 14 13 14 14 13 13 12 12 12 12 12 12 13 14 14 14 15 15 15 15 16 16 16 16 16 16 16 16 15 15 17 17 17 17 17 15 17
17 19 20 18 16 15 14 14 14 13 13 12 12 12 12 11 12 12 12 13 13 14 14 14 14 14 15 15 15 15 15 15 14 13 12 12 13 16 15 15 15 15 15
18 19 19 19 17 16 15 15 14 13 13 12 12 12 11 11 11 11 12 12 12 13 13 13 13 13 13 14 14 14 14 13 13 10 10 11 11 13 13 13 13 13 13
18 17 19 19 17 16 15 15 14 13 12 12 12 12 11 11 11 11 11 11 11 11 12 12 12 11 12 12 12 12 12 12 10 9 10 10 10 12 12 12 11 11 11
17 17 19 19 18 16 15 15 14 14 13 12 12 11 11 10 10 10 10 10 10 10 10 10 10 10 10 11 11 11 11 10 7 9 8 9 9 11 10 10 10 10 10
17 17 19 19 18 17 16 15 15 14 13 12 11 11 10 10 9 9 8 8 8 8 9 9 9 9 9 9 9 10 9 8 7 7 7 7 9 10 9 8 8 8 8
16 16 18 18 18 17 16 15 14 13 13 12 11 11 10 9 8 7 7 7 6 6 6 7 7 7 7 7 8 8 8 6 6 6 6 6 8 10 9 8 8 8 7
15 15 16 17 17 17 16 15 15 13 13 12 11 11 9 8 7 7 6 5 4 4 4 5 5 5 6 6 6 6 5 4 5 5 5 6 8 10 10 9 8 8 8
14 14 15 16 16 16 16 16 15 14 13 12 11 11 9 8 7 6 5 4 3 2 2 3 3 4 4 4 5 4 4 5 5 5 5 6 8 10 11 10 10 10 9
13 14 14 15 15 15 15 16 15 14 13 13 12 12 10 6 6 5 3 3 1 0 1 2 3 3 3 1 2 3 5 5 5 5 5 6 9 11 12 12 12 12 11
16 16 14 14 15 14 13 14 13 12 12 11 9 10 7 5 4 3 4 4 3 2 2 2 3 3 5 4 2 4 5 6 6 6 6 6 10 12 13 13 13 13 13
16 16 15 14 15 14 12 12 11 10 10 10 9 9 7 6 5 4 4 4 4 4 4 3 5 4 5 5 6 6 7 8 7 7 7 6 11 13 14 14 14 14 14
15 16 16 15 14 14 13 12 11 10 9 9 9 9 7 5 5 5 4 3 3 3 4 5 5 5 6 6 7 8 8 8 8 8 8 7 11 12 13 14 14 14 15
15 16 17 16 15 14 13 11 11 10 10 10 9 9 8 6 5 5 5 4 5 4 4 5 6 6 7 7 7 8 9 9 10 10 9 7 9 11 12 12 13 13 13
15 16 16 17 17 15 13 11 11 11 10 10 9 9 9 7 6 5 5 5 5 5 5 5 6 6 7 7 8 9 9 10 10 10 10 8 6 7 9 10 10 11 11
15 15 16 17 17 16 15 14 12 11 11 9 9 9 9 8 6 5 4 4 4 4 5 5 5 6 6 6 8 9 9 10 10 10 9 8 6 4 5 7 8 9 11
13 15 16 14 17 17 14 13 11 11 10 9 8 8 8 8 7 5 4 3 3 3 4 4 4 5 6 6 7 7 8 8 10 9 8 6 5 4 3 4 7 8 10
13 14 16 16 17 16 14 11 10 9 9 8 8 7 7 7 6 5 4 3 3 3 3 3 4 5 6 6 7 8 8 7 7 7 5 4 4 4 5 4 5 7 10
12 13 15 16 16 15 12 9 7 7 6 7 6 6 7 6 6 5 3 3 3 2 2 3 3 3 4 6 7 8 8 7 5 4 4 3 3 4 5 6 7 7 9
12 14 15 16 16 14 11 10 9 8 7 5 6 7 7 6 6 5 3 3 2 2 2 2 2 3 3 5 6 6 6 4 4 3 3 5 5 5 6 7 9 10 11
14 15 16 17 17 16 13 11 8 8 5 5 6 6 6 6 6 5 4 3 3 2 2 1 1 2 2 3 4 5 5 4 1 4 6 6 7 7 7 9 11 12 13
14 15 14 16 17 16 14 10 8 6 5 5 6 5 6 6 6 6 5 4 3 2 2 1 1 2 3 2 3 3 4 4 7 5 6 6 7 7 8 11 13 14 14
14 14 14 15 16 15 15 14 15 11 9 8 7 7 7 7 7 6 6 5 4 3 2 2 1 2 3 3 3 3 5 5 5 6 6 6 8 10 11 10 12 14 14
14 13 13 15 15 15 15 16 15 12 9 8 8 9 8 7 7 7 6 5 4 3 2 2 2 3 3 4 4 4 5 6 7 6 9 10 9 9 10 11 12 13 14
13 13 13 15 15 14 15 15 15 14 12 12 11 10 8 6 6 7 6 5 4 3 3 2 3 4 4 5 5 5 5 6 6 7 10 13 13 11 12 10 10 11 12
Wind_Direction
164 162 160 157 152 147 139 129 121 115 109 103 97 92 87 81 76 70 66 63 61 59 58 58 60 59 56 54 54 53 52 50 47 45 44 45 49 49 47 43 40 44 41
157 160 159 158 156 153 145 135 124 119 114 108 102 96 90 85 80 75 70 65 63 60 58 58 59 58 56 56 55 54 53 51 47 44 44 45 46 47 45 43 41 41 41
155 158 160 158 155 151 144 136 129 124 121 113 106 100 95 90 83 78 73 69 65 62 60 59 59 58 57 56 55 53 52 49 45 42 44 43 44 44 43 42 41 40 39
157 160 161 157 155 150 144 139 133 130 125 119 113 105 98 92 86 81 76 72 68 65 63 61 60 60 57 55 55 54 51 47 42 37 43 40 40 42 40 38 37 37 36
159 162 156 158 157 153 149 144 138 134 130 125 118 110 103 95 89 84 79 75 72 69 66 64 61 59 57 54 53 53 49 43 38 40 42 36 35 36 37 35 33 32 31
161 162 158 161 159 157 155 149 144 140 135 130 124 115 108 100 94 88 83 79 75 72 69 66 62 59 56 53 52 50 46 35 29 40 35 29 26 22 25 27 25 24 23
161 162 160 165 163 161 159 154 148 146 143 138 132 124 116 109 103 96 90 85 79 73 69 66 63 59 54 51 48 45 41 29 28 34 26 23 15 2 8 12 11 9 9
162 163 162 167 168 165 162 159 156 154 152 148 141 132 125 120 115 107 99 91 83 75 67 63 59 55 51 47 44 40 36 15 17 24 19 15 3 348 352 354 351 349 349
166 167 167 171 172 170 166 164 161 160 157 154 148 140 135 132 128 117 106 100 90 80 68 57 52 46 40 36 32 27 23 349 348 9 1 360 350 336 337 337 334 332 330
172 174 173 174 175 175 172 167 165 165 162 158 152 146 145 144 139 130 132 119 107 90 65 42 36 35 30 18 10 5 339 298 348 347 345 353 336 328 327 327 326 322 320
180 182 181 179 177 178 174 169 170 169 166 163 158 154 161 164 154 156 141 157 176 177 343 356 3 1 332 319 338 325 292 326 335 332 331 341 324 322 321 320 319 317 314
185 187 186 184 180 179 175 174 179 176 174 178 171 168 173 171 174 179 169 203 230 252 265 298 309 284 288 315 308 274 312 322 316 316 320 324 317 317 316 316 314 312 310
187 188 190 188 186 183 180 181 180 180 178 181 179 177 179 183 190 202 212 210 226 241 261 265 270 292 305 313 313 312 315 313 309 310 309 318 313 312 312 312 310 309 308
189 192 193 191 191 190 187 184 183 182 183 184 185 188 190 195 206 212 226 235 246 253 266 273 285 290 291 293 296 302 304 301 302 304 306 311 309 310 310 310 309 308 307
194 194 195 194 194 191 190 187 188 188 186 187 188 195 200 205 214 220 230 232 241 254 265 274 282 293 295 298 296 298 300 300 297 298 297 297 303 307 309 310 311 310 310
198 196 194 196 195 192 191 190 191 191 190 189 191 197 204 214 219 224 231 236 244 252 264 274 283 289 293 297 298 297 297 297 295 297 299 299 293 305 313 317 319 320 320
201 196 194 195 195 195 195 194 193 191 190 191 196 201 206 215 220 224 238 243 249 254 260 270 276 283 292 294 294 298 299 298 298 299 301 300 301 303 320 328 331 332 330
203 197 193 191 194 195 195 193 191 190 188 192 196 202 204 208 214 223 235 245 247 252 261 274 285 288 292 298 302 304 300 298 296 301 298 295 301 311 318 343 337 336 335
202 194 189 189 191 192 190 186 184 182 184 186 191 193 194 201 206 214 224 231 228 245 262 274 283 299 303 307 306 303 300 299 300 295 291 293 297 305 312 321 318 322 328
196 191 188 186 188 185 180 176 170 170 174 176 181 183 181 183 192 201 203 210 218 233 253 268 285 301 308 315 307 299 297 298 291 287 281 280 282 297 309 315 311 311 312
188 187 186 183 183 179 177 178 177 178 171 164 165 168 173 174 177 181 182 189 200 218 243 276 290 298 310 326 310 309 299 279 285 274 277 288 289 297 302 309 311 313 310
187 185 183 184 182 183 183 179 178 166 160 153 153 157 163 165 165 165 176 175 177 185 199 231 286 297 311 331 326 320 317 297 259 277 291 290 291 295 296 303 307 309 307
186 184 182 182 181 182 175 161 144 136 138 154 161 157 159 160 158 159 165 166 167 184 189 207 258 288 303 311 319 315 313 312 318 285 279 287 290 293 298 303 303 304 303
184 180 179 177 178 177 173 173 173 177 178 180 170 161 156 158 156 157 160 163 165 174 184 198 238 270 282 292 291 270 277 291 295 304 291 283 290 294 296 299 300 300 299
177 175 175 174 176 176 179 181 182 185 177 160 158 158 159 158 159 160 163 166 169 177 189 205 232 254 267 279 284 284 276 273 263 273 293 301 299 293 295 296 294 295 297
173 172 172 173 175 176 180 182 185 179 167 160 165 166 168 164 164 168 170 174 178 185 197 219 240 252 263 269 271 270 273 275 278 276 284 296 301 302 300 292 288 290 294
Height
1548 1550 1551 1553 1555 1556 1557 1558 1558 1558 1558 1558 1558 1557 1556 1556 1556 1555 1555 1554 1554 1553 1552 1552 1551 1550 1549 1548 1547 1546 1545 1545 1545 1544 1544 1543 1542 1541 1541 1540 1540 1540 1539
1548 1550 1551 1553 1555 1556 1557 1558 1558 1559 1559 1559 1559 1558 1558 1557 1557 1556 1556 1555 1555 1554 1553 1552 1551 1550 1549 1548 1547 1546 1546 1545 1545 1545 1545 1544 1543 1542 1541 1540 1540 1540 1539
1548 1550 1551 1553 1555 1557 1558 1559 1559 1559 1560 1560 1559 1559 1559 1558 1558 1558 1557 1556 1555 1555 1554 1553 1552 1551 1550 1549 1548 1547 1546 1546 1546 1546 1545 1545 1544 1543 1542 1541 1540 1539 1539
1548 1550 1552 1553 1555 1557 1558 1559 1559 1560 1560 1560 1560 1560 1560 1560 1559 1558 1558 1557 1556 1555 1555 1554 1553 1552 1551 1550 1549 1548 1547 1547 1547 1546 1546 1546 1545 1544 1542 1541 1541 1540 1539
1548 1551 1552 1553 1555 1557 1558 1559 1560 1560 1561 1561 1561 1561 1561 1560 1560 1559 1559 1558 1557 1556 1556 1555 1554 1553 1552 1551 1550 1549 1549 1548 1547 1547 1547 1546 1545 1544 1543 1542 1541 1540 1539
1549 1551 1552 1553 1555 1557 1558 1559 1560 1561 1561 1561 1562 1562 1561 1561 1561 1560 1559 1559 1558 1557 1557 1556 1555 1554 1553 1552 1552 1551 1550 1549 1548 1548 1547 1546 1546 1545 1544 1543 1542 1541 1540
1549 1551 1552 1553 1555 1557 1558 1559 1560 1561 1561 1562 1562 1562 1562 1562 1561 1561 1560 1560 1559 1559 1558 1557 1556 1555 1554 1554 1553 1552 1551 1550 1549 1548 1547 1546 1546 1545 1544 1543 1542 1541 1540
1549 1551 1552 1553 1555 1557 1558 1559 1560 1561 1562 1562 1562 1562 1562 1562 1562 1561 1561 1560 1560 1559 1559 1558 1557 1556 1555 1554 1553 1552 1551 1550 1550 1549 1548 1547 1546 1545 1544 1544 1543 1542 1540
1549 1550 1552 1553 1555 1556 1558 1559 1560 1561 1562 1562 1563 1563 1563 1563 1562 1562 1561 1561 1560 1560 1559 1558 1558 1557 1556 1555 1554 1553 1552 1551 1550 1549 1548 1547 1545 1544 1544 1543 1542 1542 1541
1548 1550 1551 1553 1554 1556 1557 1558 1560 1561 1562 1562 1562 1563 1563 1563 1562 1562 1562 1561 1561 1560 1559 1559 1558 1557 1556 1555 1554 1552 1551 1550 1550 1549 1547 1546 1545 1544 1543 1542 1542 1541 1540
1546 1548 1550 1551 1553 1555 1557 1558 1559 1560 1561 1562 1562 1562 1563 1563 1563 1563 1562 1562 1561 1560 1560 1559 1558 1557 1556 1554 1553 1552 1551 1551 1550 1548 1546 1545 1543 1542 1542 1541 1540 1539 1538
1543 1545 1547 1549 1551 1553 1555 1557 1558 1559 1560 1561 1562 1562 1563 1563 1563 1562 1562 1561 1561 1560 1559 1558 1557 1556 1555 1555 1554 1552 1551 1550 1548 1547 1545 1543 1541 1540 1539 1538 1538 1537 1536
1541 1543 1545 1547 1549 1551 1553 1555 1557 1558 1559 1560 1561 1562 1562 1562 1562 1562 1562 1561 1560 1560 1559 1558 1557 1556 1555 1554 1552 1551 1550 1548 1547 1545 1543 1541 1539 1538 1537 1536 1535 1534 1533
1538 1540 1542 1544 1546 1549 1551 1553 1555 1556 1557 1559 1559 1560 1561 1561 1561 1561 1561 1560 1560 1559 1558 1557 1556 1555 1554 1552 1551 1550 1548 1547 1545 1543 1541 1538 1537 1535 1534 1533 1532 1531 1530
1535 1537 1539 1541 1543 1546 1548 1550 1552 1554 1556 1557 1558 1558 1559 1560 1560 1560 1559 1559 1558 1558 1557 1556 1555 1554 1553 1551 1549 1548 1546 1544 1542 1540 1538 1535 1534 1532 1531 1529 1528 1527 1526
1531 1533 1535 1538 1540 1543 1545 1547 1550 1552 1553 1555 1556 1557 1557 1558 1558 1558 1558 1557 1557 1556 1555 1554 1553 1552 1550 1549 1547 1545 1543 1542 1539 1537 1535 1533 1530 1529 1527 1526 1525 1524 1522
1527 1530 1531 1534 1537 1539 1542 1545 1547 1549 1551 1552 1554 1555 1555 1556 1556 1556 1556 1555 1555 1554 1553 1552 1551 1549 1548 1546 1544 1543 1540 1538 1536 1534 1532 1530 1528 1526 1524 1523 1522 1520 1519
1523 1525 1527 1530 1533 1536 1539 1542 1544 1546 1548 1550 1551 1552 1553 1554 1554 1554 1554 1553 1552 1552 1551 1550 1548 1547 1545 1544 1542 1540 1537 1535 1533 1531 1529 1527 1525 1523 1522 1520 1518 1517 1515
1518 1520 1523 1525 1529 1532 1536 1539 1541 1544 1546 1547 1549 1550 1551 1551 1552 1552 1551 1551 1550 1549 1548 1547 1546 1545 1543 1541 1539 1536 1534 1532 1529 1527 1526 1524 1522 1521 1519 1517 1515 1513 1512
1513 1515 1518 1521 1525 1528 1532 1535 1538 1540 1543 1544 1546 1547 1548 1549 1549 1549 1549 1548 1547 1546 1545 1544 1543 1541 1540 1538 1536 1533 1531 1528 1526 1525 1523 1522 1520 1518 1517 1515 1513 1510 1508
1508 1510 1513 1516 1520 1524 1527 1531 1534 1537 1539 1541 1543 1544 1545 1546 1546 1546 1546 1545 1545 1544 1543 1542 1541 1539 1537 1535 1533 1530 1528 1525 1523 1522 1521 1520 1518 1516 1514 1511 1509 1506 1503
1503 1506 1509 1512 1516 1520 1524 1527 1531 1534 1536 1538 1540 1541 1542 1543 1543 1543 1543 1543 1542 1541 1540 1539 1538 1536 1535 1533 1531 1528 1527 1525 1522 1520 1518 1517 1515 1513 1511 1508 1505 1502 1499
1498 1501 1504 1508 1512 1516 1520 1524 1527 1530 1533 1535 1537 1538 1539 1540 1540 1540 1540 1540 1539 1538 1537 1536 1535 1534 1533 1531 1529 1529 1527 1524 1520 1517 1514 1512 1511 1509 1506 1503 1500 1497 1494
1493 1497 1501 1504 1508 1512 1516 1520 1523 1526 1529 1531 1533 1535 1536 1537 1537 1538 1537 1537 1536 1536 1535 1534 1533 1531 1530 1528 1527 1525 1525 1522 1519 1514 1511 1509 1506 1503 1501 1498 1494 1492 1488
1489 1493 1497 1501 1505 1509 1513 1516 1520 1524 1526 1529 1531 1532 1533 1534 1535 1535 1535 1534 1534 1533 1532 1531 1530 1528 1527 1525 1524 1522 1520 1518 1516 1513 1507 1504 1502 1499 1495 1492 1488 1485 1482
1485 1489 1493 1497 1501 1505 1509 1513 1517 1520 1522 1525 1527 1529 1530 1531 1531 1532 1532 1531 1531 1530 1529 1528 1527 1525 1524 1522 1520 1518 1516 1515 1512 1510 1505 1500 1496 1493 1490 1486 1482 1479 1476